Weather History for The Villages, FL

Change the Weather History Date:

Saturday, August 24, 2013

  Actual Average (KLEE) Record (KLEE)
Temperature  
Mean Temperature 79 °F -  
Max Temperature 87 °F 90 °F 98 °F (2014)
Min Temperature 71 °F 72 °F 68 °F (1973)
Cooling Degree Days 14    
Growing Degree Days 29 (Base 50)    
Moisture  
Dew Point 74 °F    
Average Humidity 91    
Maximum Humidity 100    
Minimum Humidity 66    
Precipitation  
Precipitation 0.07 in - - ()
Sea Level Pressure  
Sea Level Pressure 30.08 in    
Wind  
Wind Speed 3 mph (ENE)    
Max Wind Speed 14 mph    
Max Gust Speed 20 mph    
Averages and records for this station are not official NWS values.
T = Trace of Precipitation, MM = Missing Value Source: NWS Daily Summary

Daily Weather History Graph

Daily Weather History Graph

Search for Another Location

Airport:

Trip Planner

Search our weather history database for the weather conditions in past years. The results will help you decide how hot, cold, wet, or windy it might be!

Date:

Astronomy

Aug. 24, 2013 Rise Set
Actual Time 7:01 AM EDT 7:58 PM EDT
Civil Twilight 6:37 AM EDT 8:22 PM EDT
Nautical Twilight 6:08 AM EDT 8:51 PM EDT
Astronomical Twilight 5:38 AM EDT 9:20 PM EDT
Moon 10:17 PM EDT (8/24) 10:36 AM EDT (8/24)
Length of Visible Light 13h 45m
Length of Day
12h 56m
Waning Gibbous, 84% of the Moon is Illuminated
Aug 24
Waning Gibbous
Aug 28
Last Quarter
Sep 5
New
Sep 12
First Quarter
Sep 19
Full

Hourly Weather History & Observations

Time (EDT) Temp. Heat Index Dew Point Humidity Pressure Visibility Wind Dir Wind Speed Gust Speed Precip Events Conditions
12:15 AM 71.6 °F - 71.6 °F 100% 30.04 in - NNE 3.5 mph - N/A   Unknown
12:35 AM 71.6 °F - 71.6 °F 100% 30.04 in - Calm Calm - N/A   Unknown
12:55 AM 71.6 °F - 71.6 °F 100% 30.04 in - ENE 3.5 mph - N/A   Unknown
1:15 AM 71.6 °F - 71.6 °F 100% 30.04 in - Calm Calm - N/A   Unknown
1:35 AM 71.6 °F - 71.6 °F 100% 30.04 in - Calm Calm - N/A   Unknown
1:55 AM 71.6 °F - 71.6 °F 100% 30.03 in - Calm Calm - N/A   Unknown
2:15 AM 71.6 °F - 71.6 °F 100% 30.03 in - Calm Calm - N/A   Unknown
2:35 AM 71.6 °F - 71.6 °F 100% 30.03 in - North 3.5 mph - N/A   Unknown
2:55 AM 73.4 °F - 71.6 °F 94% 30.03 in - North 3.5 mph - N/A   Unknown
3:15 AM 73.4 °F - 71.6 °F 94% 30.03 in - North 3.5 mph - N/A   Unknown
3:35 AM 71.6 °F - 71.6 °F 100% 30.03 in - Calm Calm - N/A   Unknown
3:55 AM 71.6 °F - 71.6 °F 100% 30.03 in - NNE 3.5 mph - N/A   Unknown
4:15 AM 73.4 °F - 71.6 °F 94% 30.03 in - North 4.6 mph - N/A   Unknown
4:35 AM 73.4 °F - 73.4 °F 100% 30.03 in - NNE 4.6 mph - N/A   Unknown
4:55 AM 73.4 °F - 73.4 °F 100% 30.03 in - NNE 3.5 mph - N/A   Unknown
5:15 AM 73.4 °F - 73.4 °F 100% 30.02 in - ENE 3.5 mph - N/A   Unknown
5:35 AM 73.4 °F - 73.4 °F 100% 30.03 in - Calm Calm - N/A   Unknown
5:55 AM 73.4 °F - 71.6 °F 94% 30.03 in - ENE 4.6 mph - N/A   Unknown
6:15 AM 71.6 °F - 71.6 °F 100% 30.04 in - Calm Calm - N/A   Unknown
6:35 AM 73.4 °F - 73.4 °F 100% 30.05 in - Calm Calm - N/A   Unknown
6:55 AM 73.4 °F - 73.4 °F 100% 30.05 in - NE 3.5 mph - N/A   Unknown
7:15 AM 73.4 °F - 73.4 °F 100% 30.05 in - ENE 3.5 mph - N/A   Unknown
7:35 AM 73.4 °F - 73.4 °F 100% 30.06 in - NE 3.5 mph - N/A   Unknown
7:55 AM 73.4 °F - 73.4 °F 100% 30.07 in - Calm Calm - N/A   Unknown
8:15 AM 75.2 °F - 75.2 °F 100% 30.07 in - East 3.5 mph - N/A   Unknown
8:35 AM 75.2 °F - 75.2 °F 100% 30.07 in - East 3.5 mph - N/A   Unknown
8:55 AM 77.0 °F - 77.0 °F 100% 30.08 in - Calm Calm - N/A   Unknown
9:15 AM 77.0 °F - 77.0 °F 100% 30.09 in - NE 3.5 mph - N/A   Unknown
9:35 AM 78.8 °F - 78.8 °F 100% 30.10 in - NNE 3.5 mph - N/A   Unknown
9:55 AM 80.6 °F 89.3 °F 80.6 °F 100% 30.11 in - ENE 5.8 mph - N/A   Unknown
10:15 AM 80.6 °F 88.1 °F 78.8 °F 94% 30.11 in - NE 3.5 mph - N/A   Unknown
10:35 AM 82.4 °F 92.4 °F 78.8 °F 89% 30.11 in - NNE 3.5 mph - N/A   Unknown
10:55 AM 84.2 °F 94.1 °F 77.0 °F 79% 30.12 in - Calm Calm - N/A   Unknown
11:15 AM 84.2 °F 92.3 °F 75.2 °F 74% 30.12 in - East 3.5 mph - N/A   Unknown
11:35 AM 84.2 °F 92.3 °F 75.2 °F 74% 30.12 in - ENE 4.6 mph - N/A   Unknown
11:55 AM 84.2 °F 92.3 °F 75.2 °F 74% 30.11 in - ENE 4.6 mph - N/A   Unknown
12:15 PM 84.2 °F 92.3 °F 75.2 °F 74% 30.10 in - North 3.5 mph - N/A   Unknown
12:35 PM 84.2 °F 92.3 °F 75.2 °F 74% 30.10 in - ESE 4.6 mph - N/A   Unknown
12:55 PM 87.8 °F 97.6 °F 75.2 °F 66% 30.10 in - East 4.6 mph - N/A   Unknown
1:15 PM 87.8 °F 97.6 °F 75.2 °F 66% 30.09 in - NNE 3.5 mph - N/A   Unknown
1:35 PM 87.8 °F 97.6 °F 75.2 °F 66% 30.09 in - ENE 4.6 mph - N/A   Unknown
1:55 PM 87.8 °F 97.6 °F 75.2 °F 66% 30.09 in - East 4.6 mph - N/A   Unknown
2:15 PM 87.8 °F 97.6 °F 75.2 °F 66% 30.08 in - East 5.8 mph - N/A   Unknown
2:35 PM 87.8 °F 97.6 °F 75.2 °F 66% 30.07 in - ENE 6.9 mph - N/A   Unknown
2:55 PM 87.8 °F 97.6 °F 75.2 °F 66% 30.07 in - NNE 8.1 mph - N/A   Unknown
3:15 PM 82.4 °F 88.2 °F 73.4 °F 74% 30.07 in - ENE 13.8 mph 18.4 mph N/A   Unknown
3:35 PM 78.8 °F - 73.4 °F 83% 30.07 in - East 11.5 mph 19.6 mph N/A   Unknown
3:55 PM 77.0 °F - 73.4 °F 89% 30.08 in - East 8.1 mph - N/A   Unknown
4:15 PM 77.0 °F - 73.4 °F 89% 30.08 in - ENE 9.2 mph - N/A   Unknown
4:35 PM 78.8 °F - 75.2 °F 89% 30.09 in - East 9.2 mph - N/A   Unknown
4:55 PM 80.6 °F 86.2 °F 75.2 °F 84% 30.09 in - East 8.1 mph - N/A   Unknown
5:15 PM 78.8 °F - 75.2 °F 89% 30.11 in - East 6.9 mph - 0.01 in   Unknown
5:35 PM 78.8 °F - 75.2 °F 89% 30.11 in - ESE 8.1 mph - 0.01 in   Unknown
5:55 PM 78.8 °F - 75.2 °F 89% 30.11 in - East 9.2 mph - 0.01 in   Unknown
6:15 PM 77.0 °F - 73.4 °F 89% 30.11 in - East 6.9 mph - 0.01 in   Unknown
6:35 PM 77.0 °F - 73.4 °F 89% 30.10 in - East 5.8 mph - 0.05 in   Unknown
6:55 PM 75.2 °F - 73.4 °F 94% 30.10 in - East 4.6 mph - 0.06 in   Unknown
7:15 PM 75.2 °F - 73.4 °F 94% 30.08 in - ESE 6.9 mph - N/A   Unknown
7:35 PM 75.2 °F - 73.4 °F 94% 30.08 in - East 5.8 mph - N/A   Unknown
7:55 PM 75.2 °F - 73.4 °F 94% 30.08 in - North 4.6 mph - N/A   Unknown
8:15 PM 75.2 °F - 73.4 °F 94% 30.08 in - North 3.5 mph - N/A   Unknown
8:35 PM 75.2 °F - 73.4 °F 94% 30.09 in - NE 3.5 mph - N/A   Unknown
8:55 PM 75.2 °F - 73.4 °F 94% 30.11 in - Calm Calm - N/A   Unknown
9:15 PM 75.2 °F - 73.4 °F 94% 30.11 in - Calm Calm - N/A   Unknown
9:35 PM 75.2 °F - 73.4 °F 94% 30.11 in - Calm Calm - N/A   Unknown
9:55 PM 75.2 °F - 73.4 °F 94% 30.12 in - Calm Calm - N/A   Unknown
10:15 PM 75.2 °F - 73.4 °F 94% 30.12 in - Calm Calm - N/A   Unknown
10:35 PM 75.2 °F - 73.4 °F 94% 30.12 in - East 3.5 mph - N/A   Unknown
10:55 PM 75.2 °F - 73.4 °F 94% 30.13 in - East 4.6 mph - N/A   Unknown
11:15 PM 75.2 °F - 75.2 °F 100% 30.14 in - NNE 4.6 mph - N/A   Unknown
11:35 PM 75.2 °F - 73.4 °F 94% 30.14 in - East 5.8 mph - N/A   Unknown
11:55 PM 75.2 °F - 75.2 °F 100% 30.15 in - NE 4.6 mph - N/A   Unknown